QPF
0.02 0.03 0.03 0.03 0.03 0.03 0.05 0.05 0.06 0.07 0.06 0.05 0.04 0.04 0.05 0.07 0.12 0.15 0.16 0.18 0.22 0.23 0.24 0.22 0.19 0.17 0.13 0.08 0.05 0.05 0.05 0.04 0.03 0.03 0.03 0.02 0.01 0.00 0.00 0.00 0.00 0.00 0.00
0.02 0.02 0.02 0.02 0.02 0.02 0.03 0.04 0.05 0.05 0.04 0.03 0.02 0.02 0.05 0.07 0.10 0.13 0.16 0.15 0.17 0.16 0.14 0.12 0.13 0.11 0.10 0.09 0.06 0.05 0.04 0.03 0.02 0.01 0.01 0.01 0.00 0.00 0.00 0.00 0.00 0.00 0.00
0.01 0.01 0.01 0.01 0.01 0.01 0.02 0.02 0.02 0.02 0.02 0.02 0.02 0.02 0.02 0.03 0.05 0.07 0.10 0.09 0.10 0.11 0.10 0.08 0.07 0.07 0.07 0.07 0.06 0.05 0.04 0.03 0.02 0.01 0.01 0.00 0.00 0.00 0.00 0.00 0.00 0.00 0.00
0.01 0.01 0.01 0.00 0.01 0.01 0.01 0.01 0.01 0.01 0.01 0.01 0.01 0.02 0.03 0.05 0.05 0.06 0.07 0.07 0.08 0.08 0.08 0.08 0.07 0.07 0.06 0.06 0.04 0.04 0.04 0.03 0.02 0.02 0.01 0.01 0.01 0.00 0.00 0.00 0.00 0.00 0.00
0.00 0.00 0.00 0.00 0.00 0.00 0.00 0.00 0.00 0.01 0.01 0.01 0.01 0.01 0.02 0.04 0.04 0.03 0.04 0.04 0.05 0.05 0.06 0.07 0.07 0.07 0.06 0.06 0.05 0.04 0.04 0.04 0.03 0.02 0.01 0.01 0.01 0.00 0.00 0.00 0.00 0.00 0.00
0.00 0.00 0.00 0.00 0.00 0.00 0.00 0.00 0.01 0.01 0.01 0.01 0.01 0.01 0.02 0.03 0.03 0.03 0.03 0.02 0.03 0.03 0.04 0.07 0.09 0.09 0.09 0.09 0.08 0.06 0.07 0.06 0.05 0.04 0.03 0.02 0.01 0.01 0.00 0.00 0.00 0.00 0.00
0.00 0.00 0.00 0.00 0.00 0.00 0.00 0.00 0.01 0.02 0.02 0.02 0.02 0.02 0.03 0.02 0.01 0.01 0.01 0.01 0.01 0.01 0.02 0.03 0.06 0.08 0.09 0.11 0.12 0.11 0.09 0.09 0.09 0.08 0.07 0.05 0.03 0.02 0.01 0.00 0.00 0.00 0.00
0.00 0.00 0.00 0.00 0.00 0.00 0.00 0.00 0.01 0.01 0.01 0.02 0.02 0.02 0.02 0.01 0.01 0.00 0.00 0.00 0.00 0.00 0.01 0.01 0.02 0.03 0.05 0.07 0.10 0.12 0.14 0.13 0.11 0.11 0.11 0.10 0.07 0.06 0.04 0.02 0.02 0.02 0.01
0.00 0.00 0.00 0.00 0.00 0.00 0.00 0.00 0.00 0.01 0.01 0.01 0.01 0.01 0.01 0.01 0.01 0.01 0.01 0.00 0.00 0.00 0.00 0.00 0.01 0.02 0.03 0.04 0.06 0.09 0.13 0.16 0.17 0.16 0.16 0.16 0.14 0.11 0.08 0.06 0.04 0.04 0.03
0.00 0.00 0.00 0.00 0.00 0.00 0.00 0.00 0.00 0.00 0.00 0.00 0.00 0.00 0.00 0.01 0.01 0.01 0.01 0.00 0.00 0.00 0.00 0.00 0.00 0.01 0.01 0.02 0.04 0.05 0.07 0.10 0.15 0.19 0.21 0.21 0.20 0.18 0.15 0.12 0.09 0.07 0.05
0.00 0.00 0.00 0.00 0.00 0.00 0.00 0.00 0.00 0.00 0.00 0.00 0.00 0.00 0.00 0.00 0.00 0.00 0.00 0.01 0.01 0.01 0.00 0.00 0.00 0.00 0.00 0.01 0.03 0.05 0.06 0.08 0.10 0.14 0.18 0.22 0.23 0.22 0.19 0.15 0.12 0.09 0.07
0.00 0.00 0.00 0.00 0.00 0.00 0.00 0.00 0.00 0.00 0.00 0.00 0.00 0.00 0.00 0.00 0.00 0.00 0.00 0.00 0.01 0.01 0.00 0.00 0.01 0.00 0.00 0.01 0.01 0.03 0.05 0.08 0.10 0.13 0.16 0.18 0.22 0.23 0.23 0.19 0.15 0.12 0.09
0.00 0.00 0.00 0.00 0.00 0.00 0.00 0.00 0.00 0.00 0.00 0.00 0.00 0.00 0.00 0.00 0.00 0.01 0.01 0.01 0.01 0.01 0.01 0.01 0.01 0.01 0.00 0.00 0.01 0.01 0.02 0.04 0.07 0.11 0.14 0.17 0.20 0.21 0.21 0.21 0.19 0.17 0.13
0.00 0.00 0.00 0.00 0.00 0.00 0.00 0.00 0.00 0.00 0.00 0.00 0.00 0.00 0.00 0.00 0.01 0.01 0.01 0.01 0.02 0.02 0.02 0.02 0.01 0.01 0.00 0.01 0.01 0.01 0.01 0.02 0.03 0.05 0.09 0.12 0.16 0.19 0.21 0.19 0.17 0.17 0.16
0.00 0.00 0.00 0.00 0.00 0.00 0.00 0.00 0.00 0.00 0.00 0.00 0.00 0.00 0.00 0.01 0.01 0.01 0.02 0.02 0.03 0.02 0.03 0.03 0.03 0.02 0.01 0.01 0.01 0.01 0.01 0.02 0.02 0.02 0.03 0.04 0.08 0.13 0.18 0.22 0.20 0.17 0.14
0.00 0.00 0.00 0.00 0.00 0.00 0.00 0.00 0.00 0.00 0.00 0.00 0.00 0.01 0.01 0.01 0.01 0.02 0.03 0.03 0.04 0.04 0.04 0.05 0.05 0.04 0.01 0.00 0.00 0.01 0.01 0.02 0.02 0.02 0.02 0.02 0.03 0.05 0.09 0.13 0.18 0.19 0.16
0.00 0.00 0.00 0.00 0.00 0.00 0.00 0.00 0.00 0.00 0.01 0.01 0.01 0.01 0.02 0.03 0.03 0.03 0.04 0.05 0.06 0.07 0.07 0.07 0.07 0.07 0.05 0.02 0.00 0.00 0.02 0.03 0.03 0.02 0.02 0.01 0.01 0.02 0.04 0.06 0.08 0.10 0.10
0.00 0.00 0.00 0.00 0.00 0.00 0.00 0.00 0.00 0.01 0.01 0.01 0.02 0.02 0.04 0.05 0.05 0.07 0.07 0.09 0.09 0.09 0.08 0.09 0.10 0.10 0.07 0.03 0.01 0.00 0.01 0.04 0.03 0.03 0.02 0.02 0.02 0.02 0.02 0.03 0.05 0.05 0.05
0.00 0.00 0.00 0.00 0.00 0.00 0.00 0.00 0.01 0.01 0.01 0.02 0.03 0.04 0.05 0.06 0.07 0.08 0.09 0.11 0.12 0.10 0.09 0.09 0.10 0.10 0.09 0.05 0.02 0.01 0.03 0.05 0.04 0.03 0.02 0.02 0.02 0.02 0.01 0.02 0.03 0.04 0.04
0.00 0.00 0.00 0.00 0.00 0.00 0.00 0.01 0.01 0.01 0.02 0.03 0.03 0.05 0.07 0.08 0.09 0.09 0.10 0.12 0.14 0.13 0.11 0.10 0.09 0.10 0.11 0.07 0.03 0.02 0.04 0.06 0.06 0.06 0.04 0.01 0.01 0.01 0.01 0.02 0.03 0.04 0.04
0.00 0.00 0.00 0.00 0.00 0.00 0.01 0.01 0.01 0.02 0.02 0.03 0.04 0.05 0.08 0.09 0.09 0.10 0.10 0.11 0.12 0.13 0.12 0.11 0.10 0.10 0.10 0.09 0.04 0.02 0.03 0.06 0.07 0.06 0.04 0.03 0.00 0.01 0.01 0.02 0.04 0.05 0.05
0.00 0.00 0.00 0.00 0.00 0.00 0.01 0.02 0.02 0.02 0.02 0.03 0.04 0.06 0.08 0.08 0.08 0.10 0.10 0.12 0.12 0.12 0.11 0.11 0.10 0.10 0.09 0.08 0.06 0.02 0.02 0.04 0.07 0.07 0.05 0.04 0.01 0.01 0.02 0.03 0.04 0.05 0.06
0.00 0.00 0.00 0.00 0.00 0.01 0.01 0.02 0.02 0.02 0.03 0.03 0.05 0.07 0.08 0.09 0.10 0.10 0.10 0.11 0.11 0.11 0.10 0.10 0.09 0.09 0.09 0.09 0.04 0.02 0.01 0.01 0.04 0.06 0.04 0.02 0.01 0.01 0.03 0.05 0.07 0.07 0.08
0.00 0.00 0.00 0.00 0.00 0.01 0.01 0.02 0.02 0.03 0.03 0.04 0.06 0.06 0.07 0.08 0.09 0.11 0.11 0.11 0.11 0.11 0.10 0.10 0.10 0.10 0.10 0.11 0.08 0.05 0.02 0.01 0.02 0.02 0.02 0.00 0.00 0.02 0.05 0.08 0.10 0.11 0.13
0.00 0.00 0.00 0.00 0.01 0.01 0.01 0.02 0.03 0.03 0.04 0.04 0.05 0.05 0.06 0.08 0.08 0.09 0.10 0.08 0.09 0.08 0.08 0.10 0.12 0.12 0.12 0.09 0.07 0.07 0.06 0.04 0.05 0.04 0.05 0.03 0.02 0.04 0.07 0.12 0.17 0.20 0.23
0.00 0.00 0.00 0.00 0.01 0.01 0.01 0.02 0.03 0.04 0.04 0.05 0.05 0.05 0.05 0.07 0.07 0.08 0.09 0.07 0.05 0.03 0.02 0.03 0.05 0.08 0.07 0.04 0.02 0.02 0.01 0.01 0.01 0.03 0.08 0.07 0.06 0.09 0.13 0.17 0.23 0.26 0.29
MSLP
1014.02 1014.03 1014.02 1013.97 1013.88 1013.76 1013.61 1013.44 1013.28 1013.13 1012.99 1012.84 1012.67 1012.48 1012.26 1012.01 1011.75 1011.48 1011.25 1011.05 1010.89 1010.79 1010.73 1010.71 1010.71 1010.73 1010.75 1010.77 1010.81 1010.86 1010.94 1011.04 1011.16 1011.28 1011.39 1011.47 1011.50 1011.47 1011.39 1011.27 1011.13 1011.01 1010.92
1014.02 1014.03 1014.02 1013.95 1013.84 1013.70 1013.54 1013.37 1013.21 1013.07 1012.94 1012.81 1012.65 1012.46 1012.23 1011.96 1011.67 1011.37 1011.10 1010.88 1010.72 1010.63 1010.59 1010.60 1010.64 1010.67 1010.70 1010.72 1010.73 1010.74 1010.77 1010.82 1010.89 1010.99 1011.10 1011.19 1011.26 1011.28 1011.24 1011.16 1011.04 1010.92 1010.81
1013.79 1013.80 1013.78 1013.72 1013.62 1013.48 1013.34 1013.19 1013.07 1012.96 1012.87 1012.76 1012.63 1012.46 1012.22 1011.94 1011.62 1011.30 1011.00 1010.76 1010.60 1010.51 1010.50 1010.54 1010.60 1010.66 1010.70 1010.71 1010.69 1010.65 1010.62 1010.60 1010.62 1010.68 1010.77 1010.86 1010.96 1011.02 1011.04 1011.01 1010.94 1010.84 1010.74
1013.43 1013.44 1013.43 1013.38 1013.29 1013.18 1013.07 1012.96 1012.88 1012.82 1012.77 1012.71 1012.61 1012.46 1012.23 1011.95 1011.61 1011.27 1010.96 1010.70 1010.53 1010.45 1010.46 1010.52 1010.61 1010.69 1010.74 1010.74 1010.69 1010.61 1010.51 1010.43 1010.38 1010.38 1010.43 1010.51 1010.61 1010.71 1010.77 1010.79 1010.77 1010.71 1010.64
1013.07 1013.08 1013.07 1013.02 1012.95 1012.87 1012.78 1012.72 1012.68 1012.67 1012.66 1012.64 1012.58 1012.45 1012.25 1011.96 1011.63 1011.27 1010.95 1010.68 1010.51 1010.43 1010.45 1010.53 1010.64 1010.74 1010.80 1010.80 1010.73 1010.61 1010.46 1010.32 1010.20 1010.14 1010.13 1010.18 1010.27 1010.37 1010.46 1010.51 1010.53 1010.51 1010.47
1012.80 1012.79 1012.77 1012.72 1012.66 1012.59 1012.52 1012.48 1012.47 1012.49 1012.52 1012.53 1012.50 1012.40 1012.21 1011.94 1011.61 1011.26 1010.93 1010.66 1010.48 1010.40 1010.42 1010.52 1010.64 1010.76 1010.83 1010.84 1010.77 1010.64 1010.46 1010.27 1010.11 1009.99 1009.93 1009.93 1009.98 1010.06 1010.14 1010.21 1010.24 1010.24 1010.22
1012.65 1012.61 1012.57 1012.51 1012.44 1012.36 1012.29 1012.25 1012.25 1012.27 1012.32 1012.35 1012.33 1012.25 1012.09 1011.84 1011.52 1011.18 1010.85 1010.58 1010.40 1010.31 1010.33 1010.43 1010.56 1010.70 1010.80 1010.83 1010.78 1010.66 1010.48 1010.28 1010.09 1009.94 1009.83 1009.79 1009.79 1009.83 1009.88 1009.93 1009.95 1009.95 1009.93
1012.59 1012.53 1012.46 1012.39 1012.29 1012.19 1012.10 1012.04 1012.01 1012.02 1012.05 1012.07 1012.06 1011.99 1011.84 1011.61 1011.31 1010.98 1010.66 1010.39 1010.20 1010.11 1010.12 1010.21 1010.36 1010.51 1010.64 1010.70 1010.70 1010.62 1010.48 1010.31 1010.12 1009.96 1009.84 1009.75 1009.72 1009.71 1009.71 1009.72 1009.71 1009.68 1009.65
1012.60 1012.52 1012.43 1012.33 1012.21 1012.07 1011.95 1011.84 1011.77 1011.74 1011.73 1011.72 1011.69 1011.61 1011.46 1011.24 1010.96 1010.65 1010.34 1010.07 1009.87 1009.77 1009.77 1009.85 1009.99 1010.16 1010.31 1010.42 1010.48 1010.46 1010.39 1010.27 1010.13 1010.00 1009.89 1009.80 1009.74 1009.69 1009.66 1009.62 1009.57 1009.51 1009.45
1012.62 1012.53 1012.43 1012.31 1012.16 1011.99 1011.82 1011.66 1011.53 1011.43 1011.37 1011.31 1011.24 1011.14 1010.98 1010.76 1010.49 1010.19 1009.89 1009.63 1009.42 1009.30 1009.27 1009.34 1009.46 1009.63 1009.80 1009.96 1010.07 1010.13 1010.14 1010.11 1010.05 1009.98 1009.91 1009.85 1009.79 1009.75 1009.69 1009.62 1009.55 1009.46 1009.37
1012.62 1012.54 1012.44 1012.31 1012.14 1011.94 1011.72 1011.50 1011.31 1011.14 1011.01 1010.89 1010.77 1010.62 1010.45 1010.22 1009.95 1009.66 1009.36 1009.09 1008.87 1008.73 1008.67 1008.70 1008.80 1008.95 1009.12 1009.30 1009.45 1009.58 1009.67 1009.74 1009.77 1009.80 1009.81 1009.82 1009.81 1009.80 1009.76 1009.70 1009.62 1009.52 1009.42
1012.60 1012.54 1012.45 1012.31 1012.13 1011.90 1011.65 1011.38 1011.12 1010.89 1010.68 1010.49 1010.31 1010.12 1009.91 1009.66 1009.39 1009.09 1008.79 1008.51 1008.27 1008.10 1008.00 1007.98 1008.04 1008.15 1008.30 1008.47 1008.65 1008.82 1008.99 1009.14 1009.27 1009.40 1009.52 1009.62 1009.71 1009.77 1009.79 1009.78 1009.73 1009.65 1009.56
1012.58 1012.53 1012.45 1012.31 1012.12 1011.87 1011.58 1011.28 1010.97 1010.68 1010.41 1010.15 1009.91 1009.67 1009.41 1009.14 1008.84 1008.53 1008.22 1007.92 1007.66 1007.45 1007.31 1007.24 1007.23 1007.28 1007.39 1007.53 1007.70 1007.89 1008.10 1008.31 1008.54 1008.78 1009.01 1009.23 1009.43 1009.60 1009.72 1009.78 1009.80 1009.77 1009.71
1012.55 1012.51 1012.43 1012.29 1012.08 1011.82 1011.51 1011.18 1010.84 1010.50 1010.17 1009.86 1009.56 1009.27 1008.97 1008.66 1008.33 1008.00 1007.66 1007.35 1007.06 1006.81 1006.62 1006.49 1006.42 1006.40 1006.44 1006.53 1006.67 1006.85 1007.07 1007.33 1007.63 1007.95 1008.29 1008.63 1008.96 1009.25 1009.48 1009.65 1009.76 1009.79 1009.78
1012.55 1012.49 1012.39 1012.23 1012.01 1011.73 1011.41 1011.05 1010.69 1010.32 1009.95 1009.60 1009.25 1008.91 1008.56 1008.20 1007.84 1007.48 1007.12 1006.78 1006.46 1006.18 1005.95 1005.76 1005.63 1005.54 1005.52 1005.55 1005.63 1005.78 1005.99 1006.27 1006.61 1007.00 1007.43 1007.88 1008.32 1008.73 1009.09 1009.36 1009.56 1009.67 1009.70
1012.54 1012.45 1012.31 1012.12 1011.86 1011.56 1011.22 1010.86 1010.48 1010.10 1009.71 1009.33 1008.94 1008.55 1008.15 1007.75 1007.35 1006.95 1006.56 1006.19 1005.85 1005.54 1005.28 1005.05 1004.88 1004.74 1004.66 1004.64 1004.67 1004.79 1004.98 1005.25 1005.61 1006.05 1006.54 1007.07 1007.60 1008.11 1008.56 1008.92 1009.19 1009.36 1009.44
1012.51 1012.37 1012.17 1011.92 1011.62 1011.30 1010.94 1010.57 1010.20 1009.81 1009.42 1009.01 1008.60 1008.17 1007.72 1007.27 1006.82 1006.38 1005.95 1005.56 1005.20 1004.88 1004.60 1004.37 1004.17 1004.01 1003.91 1003.85 1003.86 1003.94 1004.11 1004.37 1004.74 1005.19 1005.71 1006.29 1006.87 1007.44 1007.95 1008.37 1008.68 1008.89 1008.98
1012.43 1012.21 1011.93 1011.62 1011.28 1010.92 1010.56 1010.19 1009.83 1009.45 1009.05 1008.64 1008.20 1007.73 1007.24 1006.74 1006.23 1005.74 1005.29 1004.87 1004.50 1004.18 1003.91 1003.69 1003.51 1003.37 1003.27 1003.22 1003.22 1003.29 1003.45 1003.71 1004.06 1004.51 1005.04 1005.62 1006.22 1006.80 1007.32 1007.76 1008.08 1008.28 1008.37
1012.26 1011.96 1011.61 1011.24 1010.85 1010.47 1010.10 1009.74 1009.39 1009.02 1008.64 1008.22 1007.76 1007.25 1006.72 1006.16 1005.60 1005.06 1004.57 1004.13 1003.76 1003.46 1003.22 1003.04 1002.91 1002.81 1002.76 1002.74 1002.77 1002.86 1003.02 1003.27 1003.61 1004.04 1004.54 1005.10 1005.67 1006.23 1006.72 1007.13 1007.43 1007.60 1007.67
1012.00 1011.62 1011.21 1010.79 1010.37 1009.98 1009.61 1009.27 1008.93 1008.58 1008.20 1007.78 1007.29 1006.75 1006.16 1005.55 1004.94 1004.35 1003.82 1003.37 1003.01 1002.73 1002.54 1002.42 1002.36 1002.34 1002.35 1002.39 1002.47 1002.59 1002.77 1003.02 1003.34 1003.74 1004.20 1004.71 1005.22 1005.72 1006.16 1006.51 1006.76 1006.90 1006.93
1011.66 1011.23 1010.78 1010.32 1009.89 1009.49 1009.14 1008.81 1008.49 1008.16 1007.78 1007.34 1006.83 1006.25 1005.61 1004.94 1004.27 1003.65 1003.09 1002.63 1002.28 1002.04 1001.90 1001.85 1001.87 1001.93 1002.02 1002.14 1002.27 1002.43 1002.63 1002.87 1003.17 1003.53 1003.94 1004.38 1004.82 1005.24 1005.61 1005.90 1006.09 1006.19 1006.20
1011.28 1010.82 1010.34 1009.88 1009.45 1009.07 1008.73 1008.42 1008.12 1007.78 1007.40 1006.93 1006.39 1005.76 1005.07 1004.35 1003.64 1002.98 1002.40 1001.94 1001.61 1001.41 1001.33 1001.35 1001.44 1001.58 1001.75 1001.92 1002.10 1002.29 1002.50 1002.73 1003.00 1003.31 1003.65 1004.02 1004.38 1004.73 1005.03 1005.26 1005.41 1005.48 1005.49
1010.88 1010.41 1009.94 1009.49 1009.08 1008.72 1008.41 1008.11 1007.81 1007.46 1007.05 1006.56 1005.96 1005.29 1004.55 1003.78 1003.04 1002.36 1001.78 1001.34 1001.03 1000.87 1000.85 1000.92 1001.08 1001.27 1001.49 1001.70 1001.90 1002.10 1002.29 1002.50 1002.72 1002.97 1003.25 1003.55 1003.85 1004.13 1004.38 1004.57 1004.71 1004.78 1004.81
1010.50 1010.04 1009.59 1009.17 1008.80 1008.46 1008.16 1007.87 1007.55 1007.18 1006.73 1006.18 1005.54 1004.81 1004.04 1003.24 1002.48 1001.81 1001.24 1000.82 1000.56 1000.45 1000.46 1000.58 1000.77 1001.00 1001.22 1001.44 1001.63 1001.80 1001.96 1002.12 1002.29 1002.48 1002.70 1002.93 1003.18 1003.42 1003.65 1003.83 1003.98 1004.09 1004.17
1010.15 1009.71 1009.30 1008.92 1008.58 1008.27 1007.97 1007.67 1007.32 1006.90 1006.39 1005.79 1005.09 1004.32 1003.51 1002.71 1001.96 1001.30 1000.78 1000.41 1000.19 1000.12 1000.18 1000.32 1000.52 1000.74 1000.95 1001.13 1001.28 1001.40 1001.49 1001.59 1001.69 1001.82 1001.99 1002.18 1002.40 1002.63 1002.85 1003.06 1003.25 1003.42 1003.58
1009.81 1009.41 1009.04 1008.70 1008.39 1008.09 1007.79 1007.45 1007.06 1006.58 1006.01 1005.34 1004.59 1003.78 1002.96 1002.17 1001.46 1000.85 1000.39 1000.08 999.93 999.90 999.99 1000.14 1000.33 1000.52 1000.68 1000.79 1000.87 1000.90 1000.92 1000.95 1000.99 1001.07 1001.19 1001.36 1001.57 1001.81 1002.07 1002.32 1002.57 1002.81 1003.06
Thickness
5749 5750 5750 5749 5747 5744 5741 5737 5734 5731 5727 5725 5723 5722 5721 5721 5721 5720 5718 5716 5714 5713 5710 5711 5709 5707 5705 5707 5712 5714 5715 5716 5720 5719 5721 5728 5733 5736 5737 5739 5742 5744 5744
5742 5742 5741 5740 5738 5734 5731 5727 5723 5720 5717 5715 5712 5711 5711 5711 5711 5710 5709 5708 5706 5706 5706 5703 5702 5701 5701 5703 5705 5706 5709 5712 5715 5713 5714 5718 5725 5727 5735 5735 5736 5739 5741
5734 5733 5732 5730 5728 5724 5721 5719 5713 5710 5707 5704 5705 5703 5702 5701 5701 5700 5700 5699 5698 5698 5696 5696 5696 5696 5697 5698 5699 5700 5700 5703 5709 5711 5710 5711 5716 5724 5728 5729 5731 5732 5734
5729 5726 5724 5721 5719 5716 5714 5709 5704 5701 5697 5695 5694 5692 5690 5690 5689 5689 5689 5689 5689 5689 5689 5689 5689 5690 5691 5692 5693 5696 5697 5697 5700 5704 5706 5710 5714 5712 5717 5721 5726 5726 5727
5723 5720 5718 5715 5712 5710 5706 5702 5697 5692 5688 5686 5683 5681 5681 5681 5681 5680 5678 5677 5679 5679 5679 5679 5680 5681 5683 5685 5686 5688 5689 5693 5694 5699 5702 5703 5703 5706 5709 5713 5717 5721 5726
5718 5715 5713 5710 5706 5704 5700 5696 5690 5684 5680 5677 5674 5670 5668 5667 5666 5665 5666 5667 5668 5668 5669 5669 5669 5670 5672 5675 5677 5679 5681 5684 5688 5692 5697 5698 5700 5702 5705 5706 5709 5714 5721
5714 5710 5707 5703 5700 5696 5693 5688 5682 5677 5673 5669 5665 5662 5658 5655 5653 5653 5655 5654 5656 5657 5656 5657 5657 5658 5660 5662 5665 5668 5672 5675 5679 5683 5688 5693 5697 5701 5703 5704 5707 5709 5714
5709 5705 5700 5697 5693 5689 5684 5679 5672 5667 5664 5660 5656 5652 5648 5647 5648 5646 5643 5643 5643 5644 5644 5643 5643 5645 5647 5649 5652 5656 5659 5664 5668 5674 5678 5683 5688 5693 5695 5697 5700 5700 5705
5703 5699 5695 5690 5685 5680 5674 5668 5662 5657 5653 5649 5645 5642 5639 5636 5634 5632 5630 5631 5631 5630 5630 5629 5629 5631 5632 5634 5638 5642 5645 5650 5655 5661 5666 5671 5678 5683 5687 5690 5693 5693 5694
5696 5691 5686 5680 5675 5668 5663 5658 5652 5646 5642 5638 5635 5634 5631 5627 5624 5621 5620 5618 5616 5615 5615 5616 5616 5617 5618 5621 5623 5628 5633 5635 5641 5646 5652 5658 5664 5670 5675 5679 5683 5687 5688
5686 5680 5675 5670 5663 5658 5652 5647 5642 5637 5632 5628 5625 5621 5618 5615 5613 5611 5609 5606 5604 5601 5601 5602 5602 5603 5605 5606 5609 5613 5618 5622 5627 5632 5638 5644 5650 5655 5661 5667 5672 5676 5680
5677 5671 5666 5659 5652 5646 5641 5636 5631 5627 5623 5619 5615 5611 5607 5603 5600 5598 5596 5594 5591 5589 5588 5588 5588 5590 5592 5593 5595 5598 5603 5608 5613 5618 5623 5629 5636 5641 5647 5653 5659 5665 5670
5669 5662 5656 5649 5642 5636 5631 5626 5621 5618 5614 5609 5605 5600 5595 5591 5588 5585 5582 5580 5578 5576 5575 5576 5576 5577 5579 5581 5583 5585 5589 5594 5599 5605 5610 5615 5619 5625 5632 5639 5646 5653 5659
5660 5653 5646 5639 5633 5627 5622 5617 5612 5608 5603 5598 5593 5588 5583 5578 5575 5571 5569 5566 5564 5563 5561 5562 5564 5565 5568 5570 5572 5575 5577 5581 5586 5591 5597 5602 5608 5614 5619 5626 5633 5640 5645
5653 5645 5638 5631 5625 5619 5614 5608 5603 5598 5592 5586 5581 5576 5571 5566 5561 5557 5553 5551 5549 5549 5549 5550 5552 5554 5557 5560 5563 5565 5568 5569 5573 5578 5584 5590 5596 5602 5608 5616 5623 5629 5634
5645 5638 5630 5624 5618 5612 5606 5601 5595 5589 5582 5575 5570 5564 5558 5553 5547 5542 5538 5536 5534 5533 5534 5536 5539 5542 5547 5553 5553 5555 5559 5562 5565 5568 5573 5579 5583 5588 5592 5600 5608 5615 5623
5637 5630 5623 5617 5611 5606 5600 5593 5587 5580 5573 5566 5559 5553 5547 5541 5534 5529 5525 5521 5519 5519 5520 5523 5526 5531 5536 5538 5541 5542 5548 5554 5558 5561 5564 5570 5578 5580 5586 5590 5594 5603 5610
5630 5623 5617 5612 5607 5601 5594 5587 5580 5573 5565 5557 5550 5543 5536 5530 5524 5517 5512 5509 5507 5506 5508 5511 5516 5520 5524 5526 5528 5532 5537 5546 5552 5555 5558 5561 5566 5572 5576 5582 5589 5596 5605
5625 5618 5611 5606 5600 5594 5587 5579 5572 5565 5557 5549 5540 5532 5525 5518 5513 5508 5503 5500 5497 5498 5499 5502 5506 5510 5514 5516 5518 5520 5531 5539 5546 5551 5555 5557 5560 5562 5564 5571 5580 5589 5597
5621 5614 5607 5600 5594 5587 5579 5571 5565 5557 5549 5540 5531 5523 5516 5510 5505 5501 5496 5493 5490 5491 5492 5495 5499 5503 5507 5509 5510 5512 5526 5534 5541 5546 5551 5551 5554 5556 5555 5562 5570 5578 5588
5617 5610 5602 5595 5588 5580 5572 5565 5558 5550 5542 5533 5525 5518 5511 5505 5501 5497 5492 5489 5487 5487 5488 5491 5494 5497 5501 5503 5505 5509 5521 5530 5536 5543 5547 5552 5550 5549 5550 5554 5563 5570 5577
5614 5607 5599 5591 5583 5576 5568 5561 5552 5544 5536 5528 5520 5514 5509 5504 5501 5495 5491 5488 5486 5485 5486 5488 5492 5494 5497 5500 5502 5506 5512 5522 5531 5538 5544 5548 5545 5544 5545 5548 5555 5558 5564
5611 5603 5595 5587 5580 5573 5565 5557 5549 5541 5533 5525 5519 5514 5509 5504 5500 5495 5492 5489 5487 5485 5486 5489 5492 5495 5498 5500 5501 5504 5508 5514 5524 5534 5536 5538 5537 5538 5542 5542 5546 5550 5560
5607 5600 5591 5583 5577 5570 5563 5554 5547 5539 5532 5526 5520 5516 5511 5506 5502 5498 5495 5491 5489 5487 5488 5489 5492 5495 5498 5501 5504 5508 5510 5512 5519 5528 5531 5529 5532 5535 5539 5543 5545 5550 5560
5604 5595 5587 5580 5574 5568 5561 5554 5548 5540 5533 5527 5522 5518 5514 5509 5505 5502 5498 5494 5490 5485 5484 5487 5490 5494 5498 5500 5503 5510 5515 5521 5526 5529 5532 5536 5539 5541 5543 5545 5548 5552 5558
5601 5593 5586 5579 5573 5567 5561 5555 5549 5542 5536 5531 5527 5523 5518 5513 5510 5506 5502 5493 5487 5483 5480 5480 5482 5490 5491 5494 5499 5503 5508 5513 5518 5524 5531 5535 5539 5542 5544 5544 5546 5551 5558